Index of /ubuntu/ubuntu/pool/universe/k

[ICO]NameLast modifiedSizeDescription

[PARENTDIR]Parent Directory  -  
[DIR]ko.tex-extra-hlfont/2007-11-10 02:03 -  
[DIR]ko.tex-unfonts/2012-05-02 10:34 -  
[DIR]kedpm/2012-12-01 12:33 -  
[DIR]kde-artwork-active/2013-09-21 01:22 -  
[DIR]kayali/2014-01-27 05:28 -  
[DIR]kingston-update-notifier/2014-02-19 10:28 -  
[DIR]kosd/2015-04-27 01:03 -  
[DIR]keepnote/2015-04-27 22:59 -  
[DIR]kubuntu-patched-l10n/2015-04-29 01:02 -  
[DIR]key-mon/2015-04-29 01:02 -  
[DIR]kanla/2015-04-29 01:02 -  
[DIR]klone/2015-04-30 20:20 -  
[DIR]kde-l10n-tg/2015-05-03 15:25 -  
[DIR]kde-l10n-th/2015-05-03 15:25 -  
[DIR]kde-l10n-vi/2015-05-03 15:25 -  
[DIR]kyototycoon/2015-12-04 23:07 -  
[DIR]kcm-qt-graphicssystem/2015-12-05 08:02 -  
[DIR]kdesudo/2015-12-05 08:02 -  
[DIR]kpartsplugin/2015-12-05 08:02 -  
[DIR]kdnssd/2015-12-06 01:15 -  
[DIR]kscope/2015-12-12 17:44 -  
[DIR]kwallet/2015-12-14 01:14 -  
[DIR]konsole4/2015-12-24 16:05 -  
[DIR]kopete-message-indicator/2016-01-15 20:04 -  
[DIR]kte-collaborative/2016-01-16 13:21 -  
[DIR]kimchi/2016-01-18 06:14 -  
[DIR]kabikaboo/2016-03-10 19:27 -  
[DIR]kon2/2016-11-01 01:28 -  
[DIR]kde-l10n-si/2016-11-01 01:28 -  
[DIR]kaa-imlib2/2016-11-01 08:04 -  
[DIR]kwin-style-dekorator/2016-11-01 08:14 -  
[DIR]kopete-plugin-thinklight/2016-11-01 08:14 -  
[DIR]kiki/2016-11-01 08:14 -  
[DIR]kitsune/2016-11-01 08:14 -  
[DIR]kdm-gdmcompat/2016-11-01 08:14 -  
[DIR]kde-style-polyester/2016-11-01 08:14 -  
[DIR]kde-style-skulpture/2016-11-01 08:14 -  
[DIR]kalternatives/2016-11-01 08:14 -  
[DIR]kaa-base/2016-11-01 15:04 -  
[DIR]kaa-metadata/2016-11-01 15:04 -  
[DIR]kwwidgets/2016-11-01 15:15 -  
[DIR]ksplice/2016-11-01 15:15 -  
[DIR]kolabadmin/2016-11-01 15:15 -  
[DIR]kepas/2016-11-01 15:15 -  
[DIR]kftpgrabber/2016-11-01 15:15 -  
[DIR]kgrab/2016-11-01 15:15 -  
[DIR]kiconedit/2016-11-01 15:15 -  
[DIR]kio-ftps/2016-11-01 15:15 -  
[DIR]kgmailnotifier/2016-11-01 15:15 -  
[DIR]kcoloredit/2016-11-01 15:15 -  
[DIR]kde-thumbnailer-openoffice/2016-11-01 15:15 -  
[DIR]katoob/2016-11-01 15:15 -  
[DIR]knowledgeroot/2016-11-01 20:24 -  
[DIR]kopete-cryptography/2016-11-02 14:23 -  
[DIR]kdesrc-build/2016-11-02 19:35 -  
[DIR]kwin-style-crystal/2016-11-03 20:08 -  
[DIR]kcometen4/2016-11-03 20:09 -  
[DIR]ktux/2016-11-04 02:02 -  
[DIR]kde-workspace/2016-11-04 08:18 -  
[DIR]kdevelop-php-docs/2017-02-21 07:19 -  
[DIR]kimwitu++/2017-04-06 13:44 -  
[DIR]klibc/2017-06-29 01:14 -  
[DIR]ksnapshot/2018-01-19 16:26 -  
[DIR]knemo/2018-01-19 16:26 -  
[DIR]kio-mtp/2018-01-19 16:26 -  
[DIR]kde-wallpapers/2018-01-19 16:26 -  
[DIR]kde-style-qtcurve/2018-01-19 16:26 -  
[DIR]kcm-touchpad/2018-01-19 16:26 -  
[DIR]kde-base-artwork/2018-01-19 16:26 -  
[DIR]kaptain/2018-01-19 16:26 -  
[DIR]kaya/2018-01-19 16:26 -  
[DIR]kumofs/2018-01-22 15:50 -  
[DIR]korundum/2018-01-22 15:50 -  
[DIR]kmer-tools/2018-01-22 15:50 -  
[DIR]kmess/2018-01-22 15:50 -  
[DIR]kgamma/2018-01-22 15:50 -  
[DIR]kdesdk-strigi-analyzers/2018-01-22 15:50 -  
[DIR]kdev-python/2018-01-22 15:50 -  
[DIR]kdenetwork-strigi-analyzers/2018-01-22 15:50 -  
[DIR]kdeconnect-plasma/2018-01-22 15:50 -  
[DIR]kdegraphics-strigi-analyzer/2018-01-22 15:50 -  
[DIR]kcm-grub2/2018-01-22 15:50 -  
[DIR]kryo-serializers/2018-01-23 16:06 -  
[DIR]komparator/2018-01-23 16:06 -  
[DIR]kdepim4/2018-01-23 16:06 -  
[DIR]knutclient/2018-01-23 16:06 -  
[DIR]kmidimon/2018-01-23 16:06 -  
[DIR]kimwitu/2018-01-23 16:07 -  
[DIR]kffmpegthumbnailer/2018-01-23 16:07 -  
[DIR]kadu-mime-tex/2018-01-23 16:07 -  
[DIR]kontrolpack/2018-02-06 21:04 -  
[DIR]kamerka/2018-04-04 16:00 -  
[DIR]kfritz/2018-04-04 18:25 -  
[DIR]kmldonkey/2018-04-04 18:25 -  
[DIR]kgraphviewer/2018-04-04 18:25 -  
[DIR]kredentials/2018-04-05 04:24 -  
[DIR]kprinter4/2018-04-05 04:24 -  
[DIR]kubuntu-docs/2018-06-14 07:14 -  
[DIR]kde-baseapps/2018-06-22 22:13 -  
[DIR]kdbg/2018-06-22 22:13 -  
[DIR]kdepim/2018-06-22 22:13 -  
[DIR]kubernetes/2018-09-06 02:53 -  
[DIR]kterm/2018-10-10 07:20 -  
[DIR]krecipes/2019-08-21 07:39 -  
[DIR]kactivities/2019-08-29 07:17 -  
[DIR]kdepimlibs/2019-08-29 07:17 -  
[DIR]kqoauth/2019-09-05 01:59 -  
[DIR]krank/2019-10-26 05:37 -  
[DIR]ktap/2019-11-22 19:13 -  
[DIR]kid/2019-12-17 20:15 -  
[DIR]kernel-package/2019-12-26 12:18 -  
[DIR]kimwitu-doc/2020-01-03 07:24 -  
[DIR]kgb/2020-03-23 03:30 -  
[DIR]ketchup/2020-03-28 01:33 -  
[DIR]keylaunch/2020-04-03 01:09 -  
[DIR]kerneltop/2020-04-03 01:09 -  
[DIR]keytouch-editor/2020-04-03 13:13 -  
[DIR]ksh93/2020-04-03 17:43 -  
[DIR]keyboardcast/2020-04-05 07:13 -  
[DIR]kubuntu-driver-manager/2020-04-08 01:33 -  
[DIR]kwstyle/2020-05-22 12:23 -  
[DIR]kppp/2020-07-11 04:52 -  
[DIR]ksaneplugin/2020-07-11 04:52 -  
[DIR]kscd/2020-07-11 04:52 -  
[DIR]kuser/2020-07-11 04:52 -  
[DIR]kvpm/2020-07-11 04:52 -  
[DIR]kirigami/2020-07-11 04:52 -  
[DIR]klein/2020-07-11 04:52 -  
[DIR]klinkstatus/2020-07-11 04:52 -  
[DIR]kfilereplace/2020-07-11 04:52 -  
[DIR]kaccessible/2020-07-11 04:52 -  
[DIR]kashmir/2020-07-11 04:52 -  
[DIR]kate4/2020-07-11 04:52 -  
[DIR]kde4pimlibs/2020-07-11 04:52 -  
[DIR]kdewebdev/2020-07-11 04:52 -  
[DIR]kdevplatform/2020-07-11 04:52 -  
[DIR]kremotecontrol/2020-07-11 04:52 -  
[DIR]kdeartwork/2020-07-11 04:52 -  
[DIR]kvpnc/2020-07-14 21:44 -  
[DIR]kradio4/2020-07-14 21:44 -  
[DIR]kover/2020-07-14 21:44 -  
[DIR]kfilemetadata/2020-07-14 21:44 -  
[DIR]karlyriceditor/2020-07-14 21:44 -  
[DIR]kde-l10n-ar/2020-07-14 21:44 -  
[DIR]kde-l10n-ast/2020-07-14 21:44 -  
[DIR]kde-l10n-bg/2020-07-14 21:44 -  
[DIR]kde-l10n-bs/2020-07-14 21:44 -  
[DIR]kde-l10n-ca-valencia/2020-07-14 21:44 -  
[DIR]kde-l10n-ca/2020-07-14 21:44 -  
[DIR]kde-l10n-cs/2020-07-14 21:44 -  
[DIR]kde-l10n-da/2020-07-14 21:44 -  
[DIR]kde-l10n-de/2020-07-14 21:44 -  
[DIR]kde-l10n-el/2020-07-14 21:44 -  
[DIR]kde-l10n-engb/2020-07-14 21:44 -  
[DIR]kde-l10n-eo/2020-07-14 21:44 -  
[DIR]kde-l10n-es/2020-07-14 21:44 -  
[DIR]kde-l10n-et/2020-07-14 21:44 -  
[DIR]kde-l10n-eu/2020-07-14 21:44 -  
[DIR]kde-l10n-fa/2020-07-14 21:44 -  
[DIR]kde-l10n-fi/2020-07-14 21:44 -  
[DIR]kde-l10n-fr/2020-07-14 21:44 -  
[DIR]kde-l10n-ga/2020-07-14 21:44 -  
[DIR]kde-l10n-gl/2020-07-14 21:44 -  
[DIR]kde-l10n-he/2020-07-14 21:44 -  
[DIR]kde-l10n-hi/2020-07-14 21:44 -  
[DIR]kde-l10n-hr/2020-07-14 21:44 -  
[DIR]kde-l10n-hu/2020-07-14 21:44 -  
[DIR]kde-l10n-ia/2020-07-14 21:44 -  
[DIR]kde-l10n-id/2020-07-14 21:44 -  
[DIR]kde-l10n-is/2020-07-14 21:44 -  
[DIR]kde-l10n-it/2020-07-14 21:44 -  
[DIR]kde-l10n-ja/2020-07-14 21:44 -  
[DIR]kde-l10n-kk/2020-07-14 21:44 -  
[DIR]kde-l10n-km/2020-07-14 21:44 -  
[DIR]kde-l10n-ko/2020-07-14 21:44 -  
[DIR]kde-l10n-lt/2020-07-14 21:44 -  
[DIR]kde-l10n-lv/2020-07-14 21:44 -  
[DIR]kde-l10n-mr/2020-07-14 21:44 -  
[DIR]kde-l10n-nb/2020-07-14 21:44 -  
[DIR]kde-l10n-nds/2020-07-14 21:44 -  
[DIR]kde-l10n-nl/2020-07-14 21:44 -  
[DIR]kde-l10n-nn/2020-07-14 21:44 -  
[DIR]kde-l10n-pa/2020-07-14 21:44 -  
[DIR]kde-l10n-pl/2020-07-14 21:44 -  
[DIR]kde-l10n-pt/2020-07-14 21:44 -  
[DIR]kde-l10n-ptbr/2020-07-14 21:44 -  
[DIR]kde-l10n-ro/2020-07-14 21:44 -  
[DIR]kde-l10n-ru/2020-07-14 21:44 -  
[DIR]kde-l10n-sk/2020-07-14 21:44 -  
[DIR]kde-l10n-sl/2020-07-14 21:44 -  
[DIR]kde-l10n-sr/2020-07-14 21:44 -  
[DIR]kde-l10n-sv/2020-07-14 21:44 -  
[DIR]kde-l10n-tr/2020-07-14 21:44 -  
[DIR]kde-l10n-ug/2020-07-14 21:44 -  
[DIR]kde-l10n-uk/2020-07-14 21:44 -  
[DIR]kde-l10n-wa/2020-07-14 21:44 -  
[DIR]kde-l10n-zhcn/2020-07-14 21:44 -  
[DIR]kde-l10n-zhtw/2020-07-14 21:44 -  
[DIR]kde-runtime/2020-07-14 21:44 -  
[DIR]kde4libs/2020-07-14 21:44 -  
[DIR]kombu/2020-07-15 01:16 -  
[DIR]kwalify/2020-11-10 18:28 -  
[DIR]kcc/2020-12-20 18:39 -  
[DIR]kxml2/2020-12-28 12:24 -  
[DIR]knopflerfish-osgi/2020-12-29 00:50 -  
[DIR]kytos-sphinx-theme/2020-12-30 06:34 -  
[DIR]keyringer/2020-12-30 06:34 -  
[DIR]keysync/2020-12-30 06:34 -  
[DIR]khmerconverter/2020-12-30 06:34 -  
[DIR]kido/2020-12-30 06:34 -  
[DIR]kmodpy/2020-12-30 06:34 -  
[DIR]kobodeluxe/2020-12-30 06:34 -  
[DIR]kodiplatform/2020-12-30 06:34 -  
[DIR]koji/2020-12-30 06:34 -  
[DIR]kopano-webapp/2020-12-30 06:34 -  
[DIR]kronosnet/2020-12-30 06:34 -  
[DIR]ktp-legacy-presence-applet/2020-12-30 06:34 -  
[DIR]knocker/2020-12-30 06:34 -  
[DIR]kismet/2020-12-30 06:34 -  
[DIR]kiki-the-nano-bot/2020-12-30 06:34 -  
[DIR]kcov/2020-12-30 06:34 -  
[DIR]kadu/2020-12-30 06:34 -  
[DIR]k3d/2020-12-30 06:34 -  
[DIR]keepass2-plugin-keepasshttp/2021-01-04 06:43 -  
[DIR]kindleclip/2021-01-06 12:40 -  
[DIR]kdgcommons-java/2021-01-08 06:53 -  
[DIR]khronos-opencl-man/2021-01-15 06:29 -  
[DIR]kthresher/2021-02-06 01:14 -  
[DIR]kboot-utils/2021-02-18 13:15 -  
[DIR]kmod/2021-12-23 13:20 -  
[DIR]keymapper/2021-12-26 12:29 -  
[DIR]kickoff/2022-04-30 22:59 -  
[DIR]kanboard-cli/2022-05-28 13:20 -  
[DIR]keepass2/2022-07-23 15:03 -  
[DIR]kblog/2022-07-23 15:03 -  
[DIR]kazocsaba-imageviewer/2022-07-23 15:03 -  
[DIR]kgx/2022-07-24 08:06 -  
[DIR]kunststoff/2022-07-24 10:42 -  
[DIR]ksysguard/2022-07-24 10:42 -  
[DIR]kstart/2022-07-24 10:42 -  
[DIR]ksh/2022-07-24 10:42 -  
[DIR]konwert/2022-07-24 10:42 -  
[DIR]knowl.js/2022-07-24 10:42 -  
[DIR]klustakwik/2022-07-24 10:42 -  
[DIR]kino/2022-07-24 10:42 -  
[DIR]king-probe/2022-07-24 10:42 -  
[DIR]kf5-kdepim-apps-libs/2022-07-24 10:42 -  
[DIR]keyman-config/2022-07-24 10:42 -  
[DIR]keyman-keyboardprocessor/2022-07-24 10:42 -  
[DIR]kannel-sqlbox/2022-07-24 10:42 -  
[DIR]kalarmcal/2022-07-24 10:42 -  
[DIR]kanif/2022-07-29 06:30 -  
[DIR]kylin-greeter/2022-08-09 07:34 -  
[DIR]kcm-fcitx5/2022-08-16 13:38 -  
[DIR]kanjidic/2022-08-24 00:44 -  
[DIR]khronos-api/2022-11-06 11:03 -  
[DIR]key-chord-el/2022-11-06 11:03 -  
[DIR]kytos-utils/2022-11-13 06:24 -  
[DIR]kraken/2022-11-20 07:36 -  
[DIR]kanjipad/2022-11-29 07:37 -  
[DIR]kazam/2022-11-30 12:44 -  
[DIR]koules/2022-12-13 19:40 -  
[DIR]krb5-sync/2022-12-16 03:49 -  
[DIR]keepassx/2022-12-28 06:29 -  
[DIR]kvmtool/2022-12-31 13:34 -  
[DIR]kytea/2022-12-31 13:34 -  
[DIR]ktx/2023-01-29 01:33 -  
[DIR]keras/2023-02-01 01:32 -  
[DIR]kworkflow/2023-02-12 06:34 -  
[DIR]kanjidraw/2023-02-19 06:34 -  
[DIR]kotlinx-atomicfu/2023-04-02 13:35 -  
[DIR]kotlinx-coroutines/2023-04-02 13:35 -  
[DIR]kernel-handbook/2023-05-09 12:29 -  
[DIR]knitpy/2023-05-17 00:29 -  
[DIR]kanboard/2023-05-17 01:15 -  
[DIR]kanyremote/2023-07-17 08:14 -  
[DIR]kexec-tools/2023-07-19 17:34 -  
[DIR]kmerresistance/2023-08-04 10:38 -  
[DIR]kazoo/2023-08-12 00:14 -  
[DIR]kxd/2023-08-25 17:04 -  
[DIR]king/2023-10-27 05:13 -  
[DIR]konfont/2023-10-27 05:13 -  
[DIR]kmfl-keyboards-mywin/2023-10-27 05:13 -  
[DIR]klick/2023-10-28 20:56 -  
[DIR]kafkacat/2023-11-14 07:40 -  
[DIR]kraken2/2023-11-29 06:54 -  
[DIR]kernel-wedge/2023-12-08 12:07 -  
[DIR]kotlin-mode/2024-01-11 02:14 -  
[DIR]kdc2tiff/2024-01-11 02:14 -  
[DIR]kitchen/2024-01-11 08:10 -  
[DIR]kissplice/2024-01-11 08:10 -  
[DIR]kephra/2024-01-11 08:10 -  
[DIR]karabo-bridge/2024-01-11 08:10 -  
[DIR]kaptive/2024-01-11 08:10 -  
[DIR]kakoune/2024-01-11 08:10 -  
[DIR]kpcli/2024-01-11 14:31 -  
[DIR]kodi-inputstream-rtmp/2024-01-11 14:31 -  
[DIR]kodi-audioencoder-vorbis/2024-01-11 14:31 -  
[DIR]krb5-strength/2024-01-13 08:09 -  
[DIR]kma/2024-01-13 08:09 -  
[DIR]kiwi-boxed-plugin/2024-01-13 08:09 -  
[DIR]kgb-bot/2024-01-13 14:20 -  
[DIR]ksh93u+m/2024-01-16 14:01 -  
[DIR]kmer/2024-01-20 05:25 -  
[DIR]kineticstools/2024-01-20 07:36 -  
[DIR]kodi-pvr-dvblink/2024-01-24 03:21 -  
[DIR]kodi-imagedecoder-heif/2024-01-24 03:21 -  
[DIR]klepto/2024-01-31 16:51 -  
[DIR]kotlin/2024-02-01 14:31 -  
[DIR]kiwi/2024-02-03 02:15 -  
[DIR]kitchensink-clojure/2024-02-15 20:37 -  
[DIR]kamcli/2024-02-15 20:38 -  
[DIR]kodi-pvr-zattoo/2024-02-16 09:38 -  
[DIR]kodi-pvr-vuplus/2024-02-16 09:38 -  
[DIR]kodi-pvr-teleboy/2024-02-16 09:38 -  
[DIR]kodi-screensaver-shadertoy/2024-02-16 09:38 -  
[DIR]kodi-screensaver-asteroids/2024-02-16 09:38 -  
[DIR]kodi-vfs-sftp/2024-02-16 09:38 -  
[DIR]kodi-pvr-vdr-vnsi/2024-02-16 09:38 -  
[DIR]kodi-screensaver-pingpong/2024-02-16 09:38 -  
[DIR]kodi-pvr-vbox/2024-02-16 09:38 -  
[DIR]kodi-pvr-iptvsimple/2024-02-16 09:38 -  
[DIR]kodi-pvr-sledovanitv-cz/2024-02-16 09:38 -  
[DIR]kodi-screensaver-greynetic/2024-02-16 10:22 -  
[DIR]kuttypy/2024-02-17 01:58 -  
[DIR]kodi-pvr-nextpvr/2024-02-17 13:54 -  
[DIR]kubuntu-web-shortcuts/2024-02-18 02:15 -  
[DIR]kde-service-menu-fuseiso/2024-02-18 02:15 -  
[DIR]kstars-data-extra-tycho2/2024-02-18 02:15 -  
[DIR]kmc/2024-02-20 01:46 -  
[DIR]kdeedu-data/2024-02-24 07:59 -  
[DIR]kde-dev-scripts/2024-02-24 07:59 -  
[DIR]kajongg/2024-02-24 14:03 -  
[DIR]keychain/2024-02-28 12:28 -  
[DIR]khal/2024-03-01 01:42 -  
[DIR]kore/2024-03-05 02:05 -  
[DIR]knockpy/2024-03-08 07:45 -  
[DIR]kbuild/2024-03-31 08:35 -  
[DIR]kylin-display-switch/2024-04-02 14:06 -  
[DIR]kylin-scanner/2024-04-04 02:19 -  
[DIR]kookbook/2024-04-04 02:19 -  
[DIR]knowthelist/2024-04-04 02:19 -  
[DIR]kylin-burner/2024-04-04 20:28 -  
[DIR]kdsoap/2024-04-04 20:28 -  
[DIR]knxd/2024-04-05 02:15 -  
[DIR]ktp-text-ui/2024-04-05 08:26 -  
[DIR]knockd/2024-04-05 14:45 -  
[DIR]kbtin/2024-04-05 14:45 -  
[DIR]kseexpr/2024-04-05 20:13 -  
[DIR]kproperty/2024-04-05 20:13 -  
[DIR]keurocalc/2024-04-05 20:13 -  
[DIR]kaffeine/2024-04-05 20:13 -  
[DIR]ktp-common-internals/2024-04-06 02:05 -  
[DIR]kstars/2024-04-06 02:05 -  
[DIR]kile/2024-04-06 02:05 -  
[DIR]kylin-video/2024-04-06 20:48 -  
[DIR]kxstitch/2024-04-06 20:48 -  
[DIR]kwave/2024-04-06 20:48 -  
[DIR]kwalletcli/2024-04-06 20:48 -  
[DIR]kwallet-pam/2024-04-06 20:48 -  
[DIR]kup-backup/2024-04-06 20:48 -  
[DIR]kubrick/2024-04-06 20:48 -  
[DIR]ktuberling/2024-04-06 20:48 -  
[DIR]ktrip/2024-04-06 20:48 -  
[DIR]ktp-send-file/2024-04-06 20:48 -  
[DIR]ktp-kded-integration-module/2024-04-06 20:48 -  
[DIR]ktp-filetransfer-handler/2024-04-06 20:48 -  
[DIR]ktp-desktop-applets/2024-04-06 20:48 -  
[DIR]ktp-contact-runner/2024-04-06 20:48 -  
[DIR]ktp-contact-list/2024-04-06 20:48 -  
[DIR]ktp-call-ui/2024-04-06 20:48 -  
[DIR]ktp-auth-handler/2024-04-06 20:48 -  
[DIR]ktp-approver/2024-04-06 20:48 -  
[DIR]ktp-accounts-kcm/2024-04-06 20:48 -  
[DIR]ktouch/2024-04-06 20:48 -  
[DIR]ktorrent/2024-04-06 20:48 -  
[DIR]ktnef/2024-04-06 20:48 -  
[DIR]ktimetracker/2024-04-06 20:48 -  
[DIR]ktimer/2024-04-06 20:48 -  
[DIR]ktikz/2024-04-06 20:48 -  
[DIR]ktechlab/2024-04-06 20:48 -  
[DIR]kteatime/2024-04-06 20:48 -  
[DIR]ksystemstats/2024-04-06 20:48 -  
[DIR]ksquares/2024-04-06 20:48 -  
[DIR]kspaceduel/2024-04-06 20:48 -  
[DIR]ksnakeduel/2024-04-06 20:48 -  
[DIR]ksmtp/2024-04-06 20:48 -  
[DIR]ksirk/2024-04-06 20:48 -  
[DIR]kshutdown/2024-04-06 20:48 -  
[DIR]kshisen/2024-04-06 20:48 -  
[DIR]kscreenlocker/2024-04-06 20:48 -  
[DIR]kscreen/2024-04-06 20:48 -  
[DIR]ksanecore/2024-04-06 20:48 -  
[DIR]kruler/2024-04-06 20:48 -  
[DIR]kronometer/2024-04-06 20:48 -  
[DIR]kross-interpreters/2024-04-06 20:48 -  
[DIR]krfb/2024-04-06 20:48 -  
[DIR]kreversi/2024-04-06 20:48 -  
[DIR]kreport/2024-04-06 20:48 -  
[DIR]krename/2024-04-06 20:48 -  
[DIR]krb5-auth-dialog/2024-04-06 20:48 -  
[DIR]kquickimageeditor/2024-04-06 20:48 -  
[DIR]kqtquickcharts/2024-04-06 20:48 -  
[DIR]kpublictransport/2024-04-06 20:48 -  
[DIR]kpmcore/2024-04-06 20:48 -  
[DIR]kpkpass/2024-04-06 20:48 -  
[DIR]kpipewire/2024-04-06 20:48 -  
[DIR]kpimtextedit/2024-04-06 20:48 -  
[DIR]kphotoalbum/2024-04-06 20:48 -  
[DIR]kosmindoormap/2024-04-06 20:48 -  
[DIR]korganizer/2024-04-06 20:48 -  
[DIR]kopete/2024-04-06 20:48 -  
[DIR]kopeninghours/2024-04-06 20:48 -  
[DIR]kontrast/2024-04-06 20:48 -  
[DIR]kontactinterface/2024-04-06 20:48 -  
[DIR]konquest/2024-04-06 20:48 -  
[DIR]kongress/2024-04-06 20:48 -  
[DIR]kompare/2024-04-06 20:48 -  
[DIR]kolourpaint/2024-04-06 20:48 -  
[DIR]kollision/2024-04-06 20:48 -  
[DIR]kolf/2024-04-06 20:48 -  
[DIR]koko/2024-04-06 20:48 -  
[DIR]kodi-vfs-libarchive/2024-04-06 20:48 -  
[DIR]kodi-pvr-mythtv/2024-04-06 20:48 -  
[DIR]kodi-pvr-hts/2024-04-06 20:48 -  
[DIR]kodi-inputstream-adaptive/2024-04-06 20:48 -  
[DIR]kodi-imagedecoder-raw/2024-04-06 20:48 -  
[DIR]kodi-audiodecoder-openmpt/2024-04-06 20:48 -  
[DIR]kodi-audioencoder-flac/2024-04-06 20:48 -  
[DIR]knotes/2024-04-06 20:48 -  
[DIR]knights/2024-04-06 20:48 -  
[DIR]knetwalk/2024-04-06 20:48 -  
[DIR]knavalbattle/2024-04-06 20:48 -  
[DIR]kmscube/2024-04-06 20:48 -  
[DIR]kmscon/2024-04-06 20:48 -  
[DIR]kmplayer/2024-04-06 20:48 -  
[DIR]kmouth/2024-04-06 20:48 -  
[DIR]kmousetool/2024-04-06 20:48 -  
[DIR]kmix/2024-04-06 20:48 -  
[DIR]kmime/2024-04-06 20:48 -  
[DIR]kmbox/2024-04-06 20:48 -  
[DIR]kmailtransport/2024-04-06 20:48 -  
[DIR]kmail-account-wizard/2024-04-06 20:48 -  
[DIR]kmag/2024-04-06 20:48 -  
[DIR]klines/2024-04-06 20:48 -  
[DIR]klickety/2024-04-06 20:48 -  
[DIR]kleborate/2024-04-06 20:48 -  
[DIR]kldap/2024-04-06 20:48 -  
[DIR]klavaro/2024-04-06 20:48 -  
[DIR]kjumpingcube/2024-04-06 20:48 -  
[DIR]kjots/2024-04-06 20:48 -  
[DIR]kiwix/2024-04-06 20:48 -  
[DIR]kivy/2024-04-06 20:48 -  
[DIR]kiten/2024-04-06 20:48 -  
[DIR]kissfft/2024-04-06 20:48 -  
[DIR]kiriki/2024-04-06 20:48 -  
[DIR]kirigami-gallery/2024-04-06 20:48 -  
[DIR]kio-gopher/2024-04-06 20:48 -  
[DIR]kimap/2024-04-06 20:48 -  
[DIR]kimagemapeditor/2024-04-06 20:48 -  
[DIR]killbots/2024-04-06 20:48 -  
[DIR]kildclient/2024-04-06 20:48 -  
[DIR]kigo/2024-04-06 20:48 -  
[DIR]kidentitymanagement/2024-04-06 20:48 -  
[DIR]khotkeys/2024-04-06 20:48 -  
[DIR]kgpg/2024-04-06 20:48 -  
[DIR]kgoldrunner/2024-04-06 20:48 -  
[DIR]kget/2024-04-06 20:48 -  
[DIR]kgames/2024-04-06 20:48 -  
[DIR]kfourinline/2024-04-06 20:48 -  
[DIR]kfloppy/2024-04-06 20:48 -  
[DIR]kfind/2024-04-06 20:48 -  
[DIR]keynav/2024-04-06 20:48 -  
[DIR]kf5-messagelib/2024-04-06 20:48 -  
[DIR]keybinder/2024-04-06 20:48 -  
[DIR]keybinder-3.0/2024-04-06 20:48 -  
[DIR]kdocker/2024-04-06 20:48 -  
[DIR]kdiamond/2024-04-06 20:48 -  
[DIR]kdf/2024-04-06 20:48 -  
[DIR]kdevelop-python/2024-04-06 20:48 -  
[DIR]kdevelop-php/2024-04-06 20:48 -  
[DIR]kdevelop-pg-qt/2024-04-06 20:48 -  
[DIR]kdesvn/2024-04-06 20:48 -  
[DIR]kdesdk-thumbnailers/2024-04-06 20:48 -  
[DIR]kdesdk-kioslaves/2024-04-06 20:48 -  
[DIR]kdeplasma-addons/2024-04-06 20:48 -  
[DIR]kdepim-runtime/2024-04-06 20:48 -  
[DIR]kdepim-addons/2024-04-06 20:48 -  
[DIR]kdecoration/2024-04-06 20:48 -  
[DIR]kdebugsettings/2024-04-06 20:48 -  
[DIR]kde-gtk-config/2024-04-06 20:48 -  
[DIR]kde-dev-utils/2024-04-06 20:48 -  
[DIR]kde-cli-tools/2024-04-06 20:48 -  
[DIR]kcron/2024-04-06 20:48 -  
[DIR]kconfig-frontends/2024-04-06 20:48 -  
[DIR]kcollectd/2024-04-06 20:48 -  
[DIR]kclock/2024-04-06 20:48 -  
[DIR]kcheckers/2024-04-06 20:48 -  
[DIR]kchmviewer/2024-04-06 20:48 -  
[DIR]kcalutils/2024-04-06 20:48 -  
[DIR]kcachegrind/2024-04-06 20:48 -  
[DIR]kbreakout/2024-04-06 20:48 -  
[DIR]kbounce/2024-04-06 20:48 -  
[DIR]kblocks/2024-04-06 20:48 -  
[DIR]kblackbox/2024-04-06 20:48 -  
[DIR]kawari8/2024-04-06 20:48 -  
[DIR]katomic/2024-04-06 20:48 -  
[DIR]kate/2024-04-06 20:48 -  
[DIR]katarakt/2024-04-06 20:48 -  
[DIR]kasts/2024-04-06 20:48 -  
[DIR]kapptemplate/2024-04-06 20:48 -  
[DIR]kapman/2024-04-06 20:48 -  
[DIR]kanatest/2024-04-06 20:48 -  
[DIR]kamoso/2024-04-06 20:48 -  
[DIR]kalk/2024-04-06 20:48 -  
[DIR]kalarm/2024-04-06 20:48 -  
[DIR]kaidan/2024-04-06 20:48 -  
[DIR]kaddressbook/2024-04-06 20:48 -  
[DIR]kaccounts-providers/2024-04-06 20:48 -  
[DIR]k4dirstat/2024-04-06 20:48 -  
[DIR]kleopatra/2024-04-07 01:46 -  
[DIR]kbackup/2024-04-07 01:46 -  
[DIR]kalendar/2024-04-07 19:50 -  
[DIR]konclude/2024-04-08 14:02 -  
[DIR]kio-extras/2024-04-08 14:02 -  
[DIR]kiwix-tools/2024-04-09 08:38 -  
[DIR]kubuntu-debug-installer/2024-04-11 07:50 -  
[DIR]komi/2024-04-11 07:50 -  
[DIR]kluppe/2024-04-11 07:50 -  
[DIR]kinput2/2024-04-11 07:50 -  
[DIR]kbdd/2024-04-11 07:50 -  
[DIR]kball/2024-04-11 07:50 -  
[DIR]kasumi/2024-04-11 07:50 -  
[DIR]khmer/2024-04-12 14:01 -  
[DIR]kdrill/2024-04-12 14:01 -  
[DIR]kdevelop/2024-04-12 14:01 -  
[DIR]kwrited/2024-04-13 13:50 -  
[DIR]kwordquiz/2024-04-13 13:50 -  
[DIR]kubuntu-notification-helper/2024-04-13 13:50 -  
[DIR]kturtle/2024-04-13 13:50 -  
[DIR]ksystemlog/2024-04-13 13:50 -  
[DIR]ksudoku/2024-04-13 13:50 -  
[DIR]ksshaskpass/2024-04-13 13:50 -  
[DIR]krdc/2024-04-13 13:50 -  
[DIR]kpat/2024-04-13 13:50 -  
[DIR]konversation/2024-04-13 13:50 -  
[DIR]kmplot/2024-04-13 13:50 -  
[DIR]kmines/2024-04-13 13:50 -  
[DIR]kmenuedit/2024-04-13 13:50 -  
[DIR]kmahjongg/2024-04-13 13:50 -  
[DIR]klettres/2024-04-13 13:50 -  
[DIR]kipi-plugins/2024-04-13 13:50 -  
[DIR]kio-gdrive/2024-04-13 13:50 -  
[DIR]kio-fuse/2024-04-13 13:50 -  
[DIR]kio-admin/2024-04-13 13:50 -  
[DIR]kinfocenter/2024-04-13 13:50 -  
[DIR]kig/2024-04-13 13:50 -  
[DIR]khangman/2024-04-13 13:50 -  
[DIR]kgeography/2024-04-13 13:50 -  
[DIR]kgamma5/2024-04-13 13:50 -  
[DIR]keditbookmarks/2024-04-13 13:50 -  
[DIR]kdenetwork-filesharing/2024-04-13 13:50 -  
[DIR]kdegraphics-thumbnailers/2024-04-13 13:50 -  
[DIR]kde-config-whoopsie/2024-04-13 13:50 -  
[DIR]kcolorchooser/2024-04-13 13:50 -  
[DIR]kcharselect/2024-04-13 13:50 -  
[DIR]kcalc/2024-04-13 13:50 -  
[DIR]kbruch/2024-04-13 13:50 -  
[DIR]kanagram/2024-04-13 13:50 -  
[DIR]kamera/2024-04-13 13:50 -  
[DIR]kactivitymanagerd/2024-04-13 13:50 -  
[DIR]kalzium/2024-04-13 13:50 -  
[DIR]kaccounts-integration/2024-04-13 13:50 -  
[DIR]k3b/2024-04-13 13:50 -  
[DIR]kwayland-integration/2024-04-15 07:45 -  
[DIR]kmymoney/2024-04-15 07:45 -  
[DIR]kirigami-addons/2024-04-15 07:45 -  
[DIR]kallisto/2024-04-15 08:53 -  
[DIR]kdiagram/2024-04-15 13:49 -  
[DIR]kdialog/2024-04-16 01:45 -  
[DIR]kwalletmanager/2024-04-16 07:47 -  
[DIR]khelpcenter/2024-04-16 07:47 -  
[DIR]kcm-fcitx/2024-04-17 01:55 -  
[DIR]kpeoplevcard/2024-04-17 19:57 -  
[DIR]kid3/2024-04-17 19:57 -  
[DIR]konsole/2024-04-19 13:55 -  
[DIR]kubuntu-wallpapers/2024-04-20 01:49 -  
[DIR]kim-api/2024-04-22 17:48 -  
[DIR]kodi-screensaver-pyro/2024-04-22 22:50 -  
[DIR]kodi-pvr-wmc/2024-04-22 22:50 -  
[DIR]kodi-visualization-spectrum/2024-04-22 22:50 -  
[DIR]kodi-visualization-fishbmc/2024-04-22 22:50 -  
[DIR]kodi-visualization-pictureit/2024-04-22 22:50 -  
[DIR]kodi-screensaver-biogenesis/2024-04-22 23:59 -  
[DIR]kodi-audiodecoder-fluidsynth/2024-04-22 23:59 -  
[DIR]kodi-pvr-filmon/2024-04-22 23:59 -  
[DIR]kodi-audioencoder-wav/2024-04-22 23:59 -  
[DIR]kmflcomp/2024-04-22 23:59 -  
[DIR]kodi-audioencoder-lame/2024-04-22 23:59 -  
[DIR]kodi-pvr-argustv/2024-04-22 23:59 -  
[DIR]kodi-pvr-octonet/2024-04-22 23:59 -  
[DIR]kodi-audiodecoder-sidplay/2024-04-22 23:59 -  
[DIR]kodi-pvr-dvbviewer/2024-04-22 23:59 -  
[DIR]kodi-pvr-mediaportal-tvserver/2024-04-22 23:59 -  
[DIR]kodi-peripheral-xarcade/2024-04-22 23:59 -  
[DIR]kodi-pvr-pctv/2024-04-22 23:59 -  
[DIR]kodi-visualization-waveform/2024-04-22 23:59 -  
[DIR]kodi-pvr-njoy/2024-04-22 23:59 -  
[DIR]kstore/2024-04-22 23:59 -  
[DIR]kodi-pvr-hdhomerun/2024-04-24 01:54 -  
[DIR]kubuntu-installer-prompt/2024-04-26 07:51 -  
[DIR]kubetail/2024-05-03 09:39 -  
[DIR]khronos-opengl-man4/2024-05-03 10:30 -  
[DIR]klaus/2024-05-03 10:30 -  
[DIR]kiwix-zim-updater/2024-05-03 10:30 -  
[DIR]keystone-tempest-plugin/2024-05-03 10:30 -  
[DIR]keyboards-rg/2024-05-03 10:30 -  
[DIR]kconfiglib/2024-05-03 10:30 -  
[DIR]keyrings.alt/2024-05-05 06:48 -  
[DIR]killer/2024-05-09 06:39 -  
[DIR]kyua/2024-05-09 19:20 -  
[DIR]kbibtex/2024-05-09 19:20 -  
[DIR]klog/2024-05-09 19:20 -  
[DIR]kexi/2024-05-09 19:20 -  
[DIR]kyotocabinet/2024-05-09 19:20 -  
[DIR]krusader/2024-05-09 19:20 -  
[DIR]ktextaddons/2024-05-09 19:20 -  
[DIR]kiwisolver/2024-05-09 19:20 -  
[DIR]kristall/2024-05-09 19:20 -  
[DIR]ksmbd-tools/2024-05-09 19:20 -  
[DIR]kxl/2024-05-09 19:20 -  
[DIR]kuvert/2024-05-09 19:20 -  
[DIR]kde-inotify-survey/2024-05-09 19:20 -  
[DIR]kdb/2024-05-09 19:20 -  
[DIR]kalign/2024-05-09 19:20 -  
[DIR]kanshi/2024-05-09 19:20 -  
[DIR]kraft/2024-05-09 20:19 -  
[DIR]ketm/2024-05-09 23:01 -  
[DIR]kickpass/2024-05-09 23:01 -  
[DIR]ksnip/2024-05-10 05:00 -  
[DIR]kodi-game-libretro/2024-05-10 09:10 -  
[DIR]kupfer/2024-05-13 00:58 -  
[DIR]kvirc/2024-05-14 07:47 -  
[DIR]kapidox/2024-05-14 11:29 -  
[DIR]kwindowsystem/2024-05-14 13:05 -  
[DIR]ksyntax-highlighting/2024-05-14 13:05 -  
[DIR]ki18n/2024-05-14 13:05 -  
[DIR]kitemviews/2024-05-14 13:05 -  
[DIR]kitemmodels/2024-05-14 13:05 -  
[DIR]kplotting/2024-05-14 13:05 -  
[DIR]kidletime/2024-05-14 13:05 -  
[DIR]kholidays/2024-05-14 13:05 -  
[DIR]kguiaddons/2024-05-14 13:05 -  
[DIR]kconfig/2024-05-14 13:05 -  
[DIR]kcoreaddons/2024-05-14 13:05 -  
[DIR]kcodecs/2024-05-14 13:05 -  
[DIR]kcalcore/2024-05-14 13:05 -  
[DIR]kdbusaddons/2024-05-14 13:05 -  
[DIR]karchive/2024-05-14 13:05 -  
[DIR]kdnssd-kf5/2024-05-14 13:05 -  
[DIR]kwayland/2024-05-14 14:00 -  
[DIR]kwidgetsaddons/2024-05-14 14:00 -  
[DIR]kdoctools/2024-05-14 15:05 -  
[DIR]kactivities-kf5/2024-05-14 15:05 -  
[DIR]kauth/2024-05-14 15:05 -  
[DIR]kcontacts/2024-05-14 15:05 -  
[DIR]kcrash/2024-05-14 15:05 -  
[DIR]kunitconversion/2024-05-14 15:05 -  
[DIR]kpty/2024-05-14 15:05 -  
[DIR]kfilemetadata-kf5/2024-05-14 15:05 -  
[DIR]knotifications/2024-05-14 15:05 -  
[DIR]kpeople/2024-05-14 16:22 -  
[DIR]kjobwidgets/2024-05-14 16:22 -  
[DIR]kcompletion/2024-05-14 16:23 -  
[DIR]kactivities-stats/2024-05-14 17:22 -  
[DIR]kservice/2024-05-14 17:22 -  
[DIR]kjs/2024-05-14 17:22 -  
[DIR]kconfigwidgets/2024-05-14 17:22 -  
[DIR]kpackage/2024-05-14 17:22 -  
[DIR]kdesignerplugin/2024-05-14 17:22 -  
[DIR]kirigami2/2024-05-14 19:05 -  
[DIR]kwallet-kf5/2024-05-14 19:05 -  
[DIR]kjsembed/2024-05-14 19:05 -  
[DIR]kiconthemes/2024-05-14 19:05 -  
[DIR]ktextwidgets/2024-05-14 19:05 -  
[DIR]kemoticons/2024-05-14 19:05 -  
[DIR]kdesu/2024-05-14 19:05 -  
[DIR]kded/2024-05-14 19:05 -  
[DIR]kxmlgui/2024-05-14 20:50 -  
[DIR]kbookmarks/2024-05-14 22:30 -  
[DIR]kio/2024-05-15 02:11 -  
[DIR]knewstuff/2024-05-15 03:54 -  
[DIR]kdeclarative/2024-05-15 03:54 -  
[DIR]kparts/2024-05-15 03:54 -  
[DIR]kinit/2024-05-15 03:54 -  
[DIR]kdav/2024-05-15 03:54 -  
[DIR]kxmlrpcclient/2024-05-15 03:54 -  
[DIR]knotifyconfig/2024-05-15 03:54 -  
[DIR]kross/2024-05-15 05:34 -  
[DIR]kdewebkit/2024-05-15 05:34 -  
[DIR]kmediaplayer/2024-05-15 05:34 -  
[DIR]kcmutils/2024-05-15 05:34 -  
[DIR]kquickcharts/2024-05-15 05:34 -  
[DIR]ktexteditor/2024-05-15 06:19 -  
[DIR]kdelibs4support/2024-05-15 06:19 -  
[DIR]khtml/2024-05-15 07:05 -  
[DIR]krunner/2024-05-15 09:29 -  
[DIR]kup/2024-05-16 06:50 -  
[DIR]kde-config-systemd/2024-05-16 21:59 -  
[DIR]krecorder/2024-05-17 07:53 -  
[DIR]kernsmooth/2024-05-21 14:24 -  
[DIR]kylin-nm/2024-05-22 01:44 -  
[DIR]kvazaar/2024-05-24 07:53 -  
[DIR]kalgebra/2024-05-26 01:45 -  
[DIR]kannel/2024-05-27 14:04 -  
[DIR]kothic/2024-05-30 07:53 -  
[DIR]keepassxc/2024-05-30 07:53 -  
[DIR]kde-spectacle/2024-06-01 15:35 -  
[DIR]kdsingleapplication/2024-06-01 15:35 -  
[DIR]kmetronome/2024-06-01 15:35 -  
[DIR]k2pdfopt/2024-06-02 19:12 -  
[DIR]kimageannotator/2024-06-02 19:45 -  
[DIR]kcolorpicker/2024-06-02 19:45 -  
[DIR]kakasi/2024-06-02 19:45 -  
[DIR]khronos-opencl-headers/2024-06-04 01:03 -  
[DIR]k3conf/2024-06-04 10:54 -  
[DIR]kokkos/2024-06-05 01:44 -  
[DIR]kegtron-ble/2024-06-06 01:44 -  
[DIR]kraptor/2024-06-07 00:03 -  
[DIR]kst/2024-06-07 01:45 -  
[DIR]kicad-templates/2024-06-07 19:48 -  
[DIR]kas/2024-06-09 07:44 -  
[DIR]keyman/2024-06-11 22:38 -  
[DIR]klatexformula/2024-06-12 01:44 -  
[DIR]klayout/2024-06-15 12:13 -  
[DIR]khronos-opencl-clhpp/2024-06-15 19:47 -  
[DIR]kilo/2024-06-19 09:11 -  
[DIR]kylin-process-manager/2024-06-26 06:27 -  
[DIR]knot/2024-06-27 14:34 -  
[DIR]kwin/2024-06-28 02:06 -  
[DIR]kwayland-server/2024-06-28 02:06 -  
[DIR]krita/2024-06-28 14:03 -  
[DIR]kitinerary/2024-06-29 07:57 -  
[DIR]kelbt/2024-06-30 19:14 -  
[DIR]kdiff3/2024-07-01 07:52 -  
[DIR]kdeconnect/2024-07-01 07:52 -  
[DIR]krop/2024-07-02 14:13 -  
[DIR]keras-applications/2024-07-02 19:27 -  
[DIR]keras-preprocessing/2024-07-02 19:27 -  
[DIR]kodi-pvr-stalker/2024-07-03 20:22 -  
[DIR]kodi-visualization-shadertoy/2024-07-03 20:22 -  
[DIR]kodi-peripheral-joystick/2024-07-03 20:22 -  
[DIR]kodi-inputstream-ffmpegdirect/2024-07-03 20:22 -  
[DIR]kodi-pvr-waipu/2024-07-03 20:22 -  
[DIR]knews/2024-07-04 08:36 -  
[DIR]kali/2024-07-04 08:36 -  
[DIR]kopanocore/2024-07-04 16:25 -  
[DIR]kind/2024-07-04 18:47 -  
[DIR]khard/2024-07-05 01:59 -  
[DIR]klystrack/2024-07-05 13:14 -  
[DIR]kernelshark/2024-07-07 14:00 -  
[DIR]kew/2024-07-07 19:51 -  
[DIR]kdegraphics-mobipocket/2024-07-08 07:53 -  
[DIR]keepassxc-browser/2024-07-09 02:01 -  
[DIR]kubuntu-settings/2024-07-10 04:14 -  
[DIR]kdenlive/2024-07-10 05:27 -  
[DIR]kafs-client/2024-07-11 02:24 -  
[DIR]kglobalacceld/2024-07-11 14:23 -  
[DIR]kubernetes-split-yaml/2024-07-11 19:49 -  
[DIR]kubecolor/2024-07-11 19:49 -  
[DIR]kel-agent/2024-07-11 19:49 -  
[DIR]kcptun/2024-07-11 19:49 -  
[DIR]kappanhang/2024-07-11 19:49 -  
[DIR]kwartz-client/2024-07-12 14:17 -  
[DIR]kglobalaccel/2024-07-12 20:08 -  
[DIR]kgeotag/2024-07-12 20:29 -  
[DIR]ktls-utils/2024-07-13 02:11 -  
[DIR]kontact/2024-07-13 07:59 -  
[DIR]konqueror/2024-07-13 07:59 -  
[DIR]kmail/2024-07-13 07:59 -  
[DIR]kf6-threadweaver/2024-07-15 07:53 -  
[DIR]kf6-syntax-highlighting/2024-07-15 07:53 -  
[DIR]kf6-sonnet/2024-07-15 07:53 -  
[DIR]kf6-prison/2024-07-15 07:53 -  
[DIR]kf6-networkmanager-qt/2024-07-15 07:53 -  
[DIR]kf6-modemmanager-qt/2024-07-15 07:53 -  
[DIR]kf6-kwindowsystem/2024-07-15 07:53 -  
[DIR]kf6-kuserfeedback/2024-07-15 07:53 -  
[DIR]kf6-ktexttemplate/2024-07-15 07:53 -  
[DIR]kf6-kplotting/2024-07-15 07:53 -  
[DIR]kf6-kitemviews/2024-07-15 07:53 -  
[DIR]kf6-kitemmodels/2024-07-15 07:53 -  
[DIR]kf6-kidletime/2024-07-15 07:53 -  
[DIR]kf6-kholidays/2024-07-15 07:53 -  
[DIR]kf6-kguiaddons/2024-07-15 07:53 -  
[DIR]kf6-kglobalaccel/2024-07-15 07:53 -  
[DIR]kf6-kdnssd/2024-07-15 07:53 -  
[DIR]kf6-kdbusaddons/2024-07-15 07:53 -  
[DIR]kf6-kcoreaddons/2024-07-15 07:53 -  
[DIR]kf6-kconfig/2024-07-15 07:53 -  
[DIR]kf6-kcodecs/2024-07-15 07:53 -  
[DIR]kf6-karchive/2024-07-15 07:53 -  
[DIR]kf6-kapidox/2024-07-15 07:53 -  
[DIR]kf6-breeze-icons/2024-07-15 07:53 -  
[DIR]kf6-bluez-qt/2024-07-15 07:53 -  
[DIR]kf6-attica/2024-07-15 07:53 -  
[DIR]kodi/2024-07-15 14:11 -  
[DIR]kf6-syndication/2024-07-15 14:11 -  
[DIR]kf6-kwidgetsaddons/2024-07-15 14:11 -  
[DIR]kf6-kwallet/2024-07-15 14:11 -  
[DIR]kf6-kunitconversion/2024-07-15 14:11 -  
[DIR]kf6-ktextwidgets/2024-07-15 14:11 -  
[DIR]kf6-kstatusnotifieritem/2024-07-15 14:11 -  
[DIR]kf6-kservice/2024-07-15 14:11 -  
[DIR]kf6-krunner/2024-07-15 14:11 -  
[DIR]kf6-kpty/2024-07-15 14:11 -  
[DIR]kf6-kpeople/2024-07-15 14:11 -  
[DIR]kf6-kpackage/2024-07-15 14:11 -  
[DIR]kf6-knotifications/2024-07-15 14:11 -  
[DIR]kf6-kjobwidgets/2024-07-15 14:11 -  
[DIR]kf6-kiconthemes/2024-07-15 14:11 -  
[DIR]kf6-ki18n/2024-07-15 14:11 -  
[DIR]kf6-kfilemetadata/2024-07-15 14:11 -  
[DIR]kf6-kdoctools/2024-07-15 14:11 -  
[DIR]kf6-kdesu/2024-07-15 14:11 -  
[DIR]kf6-kded/2024-07-15 14:11 -  
[DIR]kf6-kdeclarative/2024-07-15 14:11 -  
[DIR]kf6-kcrash/2024-07-15 14:11 -  
[DIR]kf6-kcontacts/2024-07-15 14:11 -  
[DIR]kf6-kconfigwidgets/2024-07-15 14:11 -  
[DIR]kf6-kcompletion/2024-07-15 14:11 -  
[DIR]kf6-kcolorscheme/2024-07-15 14:11 -  
[DIR]kf6-kbookmarks/2024-07-15 14:11 -  
[DIR]kf6-kauth/2024-07-15 14:11 -  
[DIR]kf6-kxmlgui/2024-07-15 20:09 -  
[DIR]kf6-kio/2024-07-15 20:09 -  
[DIR]kf6-ktexteditor/2024-07-16 02:08 -  
[DIR]kf6-kparts/2024-07-16 02:08 -  
[DIR]kf6-knotifyconfig/2024-07-16 02:08 -  
[DIR]kf6-kdav/2024-07-16 02:08 -  
[DIR]kf6-baloo/2024-07-16 02:08 -  
[DIR]komposter/2024-07-16 08:02 -  
[DIR]kubectx/2024-07-16 16:15 -  
[DIR]kitty/2024-07-16 18:13 -  
[DIR]knack/2024-07-17 06:51 -  
[DIR]kdiskmark/2024-07-17 07:52 -  
[DIR]kf6-kcalendarcore/2024-07-17 14:18 -  
[DIR]kf6-kirigami/2024-07-18 08:03 -  
[DIR]knot-resolver/2024-07-18 14:16 -  
[DIR]ksmtuned/2024-07-18 18:45 -  
[DIR]kimageformats/2024-07-19 02:12 -  
[DIR]kf6-qqc2-desktop-style/2024-07-19 02:12 -  
[DIR]kf6-purpose/2024-07-19 02:12 -  
[DIR]kf6-ksvg/2024-07-19 02:12 -  
[DIR]kf6-kquickcharts/2024-07-19 02:12 -  
[DIR]kf6-knewstuff/2024-07-19 02:12 -  
[DIR]kf6-kimageformats/2024-07-19 02:12 -  
[DIR]kf6-kcmutils/2024-07-19 02:12 -  
[DIR]kf6-frameworkintegration/2024-07-19 02:12 -  
[DIR]krb5/2024-07-19 05:44 -  
[DIR]kerneloops/2024-07-19 05:44 -  
[DIR]kicad-footprints/2024-07-19 06:46 -  
[DIR]kicad-symbols/2024-07-19 06:46 -  
[DIR]kicad-packages3d/2024-07-19 07:52 -  
[DIR]kf6-solid/2024-07-19 07:52 -  
[DIR]kuserfeedback/2024-07-19 07:53 -  
[DIR]kubuntu-meta/2024-07-19 08:04 -  
[DIR]kamailio/2024-07-19 10:06 -  
[DIR]kicad/2024-07-19 11:07 -  
[DIR]kpatch/2024-07-19 12:16 -